This demonstration page uses our WeatherBlox Daily Observations layout. Learn more.

Left ArrowRight Arrow

31.31129, -92.44514

Hourly Observations for December 10, 2015

Temp ( °F °C ) Dew Point ( °F °C ) Humidity (%) Winds ( mph kmh ) Pressure ( in mb ) Visibility ( mi km ) Precip ( " mm )
12:08 am 00:08 Clear with Mist and Fog 53 11.7 53 11.7 100 100 Calm 29.94 1014 2 3 0.00 0.00
12:21 am 00:21 Mostly Cloudy with Fog 53 11.7 53 11.7 100 100 Calm 29.94 1014 0 0 0.00 0.00
12:53 am 00:53 Mostly Cloudy with Fog 53 11.7 52 11.1 96 96 ESE 3 6 29.94 1014 0 0 0.00 0.00
1:41 am 01:41 Mostly Cloudy with Fog 52 11.1 52 11.1 100 100 ESE 3 6 29.91 1013 0 0 0.00 0.00
1:49 am 01:49 Mostly Cloudy with Mist and Fog 52 11 52 11 100 100 ESE 3 6 29.91 1013 1 2 0.00 0.00
1:50 am 01:50 Cloudy with Mist and Fog 52 11.1 52 11.1 100 100 ESE 3 6 29.93 1013 2 2 0.00 0.00
2:06 am 02:06 Mostly Cloudy with Fog 52 11.1 52 11.1 100 100 SE 5 7 29.91 1013 1 1 0.00 0.00
2:20 am 02:20 Mostly Cloudy with Fog 52 11.1 52 11.1 100 100 SE 3 6 29.91 1013 0 0 0.00 0.00
2:28 am 02:28 Mostly Cloudy with Fog 52 11.1 52 11.1 100 100 SE 3 6 29.91 1013 1 1 0.00 0.00
2:53 am 02:53 Mostly Cloudy with Fog 52 11.1 52 11.1 100 100 ESE 3 6 29.93 1013 0 0 0.00 0.00
3:53 am 03:53 Mostly Cloudy with Fog 53 11.7 53 11.7 100 100 ESE 5 7 29.93 1013 0 0 0.00 0.00
4:27 am 04:27 Mostly Cloudy with Fog 54 12.2 54 12.2 100 100 Calm 29.91 1013 1 1 0.00 0.00
4:39 am 04:39 Mostly Cloudy with Fog 55 12.8 55 12.8 100 100 SE 3 6 29.91 1013 0 0 0.00 0.00
4:53 am 04:53 Mostly Cloudy with Fog 56 13.3 56 13.3 100 100 Calm 29.93 1014 1 1 0.00 0.00
5:53 am 05:53 Mostly Cloudy with Fog 58 14.4 58 14.4 100 100 SSW 7 11 29.94 1014 0 0 0.00 0.00
6:09 am 06:09 Mostly Cloudy with Fog 58 14.4 58 14.4 100 100 S 8 13 29.94 1014 1 1 0.00 0.00
6:22 am 06:22 Cloudy with Mist and Fog 59 15 59 15 100 100 S 6 9 29.94 1014 2 2 0.00 0.00
6:53 am 06:53 Cloudy with Mist and Fog 59 15 59 15 100 100 SSW 6 9 29.94 1014 1 1 0.00 0.00
7:09 am 07:09 Cloudy with Mist and Fog 59 15 59 15 100 100 S 7 11 29.94 1014 1 2 0.00 0.00
7:20 am 07:20 Mostly Cloudy with Fog 59 15 59 15 100 100 S 6 9 29.94 1014 1 1 0.00 0.00
7:53 am 07:53 Cloudy with Fog 59 15 59 15 100 100 SSE 3 6 29.96 1015 1 1 0.00 0.00
8:37 am 08:37 Mostly Cloudy with Fog 60 15.6 60 15.6 100 100 SSE 6 9 29.94 1014 0 0 0.00 0.00
8:44 am 08:44 Mostly Cloudy with Fog 61 16.1 61 16.1 100 100 S 6 9 29.94 1014 1 1 0.00 0.00
8:53 am 08:53 Cloudy with Mist and Fog 61 16.1 61 16.1 100 100 S 7 11 29.96 1015 1 1 0.00 0.00
9:01 am 09:01 Cloudy with Mist and Fog 61 16.1 61 16.1 100 100 S 5 7 29.97 1015 2 2 0.00 0.00
9:50 am 09:50 Cloudy with Mist and Fog 63 17 63 17 100 100 S 5 7 29.97 1015 3 4 0.00 0.00
9:53 am 09:53 Cloudy with Mist and Fog 62 16.7 62 16.7 100 100 S 6 9 29.97 1015 3 4 0.00 0.00
10:00 am 10:00 Cloudy with Mist and Fog 63 17.2 63 17.2 100 100 S 8 13 29.97 1015 4 6 0.00 0.00
10:34 am 10:34 Cloudy with Mist and Fog 63 17.2 63 17.2 100 100 S 7 11 29.94 1014 5 8 0.00 0.00
10:53 am 10:53 Cloudy with Mist and Fog 65 18.3 64 17.8 97 97 S 8 13 29.95 1014 5 8 0.00 0.00
11:51 am 11:51 Cloudy 70 21 64 18 83 83 SSW 10 17 29.91 1013 7 11 0.00 0.00
11:53 am 11:53 Cloudy 70 21.1 65 18.3 84 84 S 14 22 29.92 1013 7 11 0.00 0.00
12:18 pm 12:18 Cloudy 71 21.7 65 18.3 81 81 SSW 10 17 29.91 1013 8 13 0.00 0.00
12:53 pm 12:53 Cloudy 71 21.7 64 17.8 79 79 SW 12 19 29.89 1012 9 14 0.00 0.00
1:53 pm 13:53 Partly Cloudy 74 23.3 65 18.3 74 74 SSE 10 17 29.85 1011 10 16 0.00 0.00
2:53 pm 14:53 Sunny 74 23.3 65 18.3 74 74 S 9 15 29.83 1010 10 16 0.00 0.00
3:53 pm 15:53 Mostly Sunny 75 23.9 64 17.8 69 69 S 9 15 29.84 1011 10 16 0.00 0.00
4:53 pm 16:53 Sunny 73 22.8 64 17.8 74 74 S 8 13 29.83 1010 10 16 0.00 0.00
5:53 pm 17:53 Clear 69 20.6 64 17.8 84 84 SSE 8 13 29.83 1010 10 16 0.00 0.00
6:53 pm 18:53 Clear 69 20.6 65 18.3 87 87 S 8 13 29.84 1011 10 16 0.00 0.00
7:53 pm 19:53 Mostly Clear 68 20 66 18.9 93 93 S 8 13 29.85 1011 10 16 0.00 0.00
8:53 pm 20:53 Clear 68 20 66 18.9 93 93 S 10 17 29.85 1011 10 16 0.00 0.00
9:53 pm 21:53 Mostly Clear 69 20.6 67 19.4 93 93 S 9 15 29.87 1012 10 16 0.00 0.00
10:53 pm 22:53 Partly Cloudy 69 20.6 67 19.4 93 93 S 9 15 29.88 1012 10 16 0.00 0.00
11:10 pm 23:10 Mostly Cloudy 69 20.6 67 19.4 93 93 S 8 13 29.88 1012 10 16 0.00 0.00
11:53 pm 23:53 Cloudy 69 20.6 67 19.4 93 93 S 10 17 29.87 1012 10 16 0.00 0.00

Powered by AerisWeather